Regional Weather Roundup
Issued by NWS Goodland, KS

Home | Current Version | Previous Version | Text Only | Print | Product List | Glossary On
Versions: 1 2 3 4 5 6 7 8 9 10 11 12 13 14 15 16 17 18 19 20 21 22 23 24 25 26 27 28 29 30 31 32 33 34 35 36 37 38 39 40 41 42 43 44 45 46 47 48 49 50
000
ASUS43 KGLD 110008
RWRGLD

GOODLAND FORECAST AREA HOURLY WEATHER ROUNDUP
NATIONAL WEATHER SERVICE GOODLAND KS
500 PM MST SAT DEC 10 2016

...OFFICIAL OBSERVATIONS...

CITY           SKY/WX    TMP DP  RH WIND       PRES   REMARKS
GOODLAND KS    CLOUDY    32  26  78 SE13      29.75F
HILL CITY KS   CLOUDY    35  24  64 SE5       29.86F
IMPERIAL NEB   CLOUDY    27  22  81 SE6       29.76F
MCCOOK NEB     CLOUDY    31  24  75 SE6       29.80F
AKRON CO       CLOUDY    33  27  78 SW8       29.72S
BURLINGTON CO  CLOUDY    39  25  57 SE13      29.73F
LIMON CO       CLOUDY    44  19  36 N5        29.73F
$$

...UNOFFICIAL OBSERVATIONS...

CITY           SKY/WX    TMP DP  RH WIND       PRES   REMARKS
COLBY KS       CLEAR     34  28  80 SE5       29.79F
LENORA KS        N/A     35  32  89 MISG        N/A
NORTON KS      CLEAR     34  21  60 SE7       29.82F
SHARON SPRINGS   N/A     35  27  73 SE6         N/A
TRENTON NEB      N/A     28  32 100 S5          N/A
KIT CARSON CO    N/A     42  22  44 CALM        N/A
YUMA CO        FAIR      28  23  80 SE7       29.73F
$$




USA.gov is the U.S. government's official web portal to all federal, state and local government web resources and services.